Glens Falls, NY

10:47 PM EDT on October 18, 2019 (GMT -0400)
Bennett Memorial

Weather History for KGFL - August, 2019

Change the Weather History Date:

Friday, August 16, 2019

  Actual Average Record
Temperature  
Mean Temperature 71 °F 67 °F  
Max Temperature 79 °F 79 °F 95 °F (1944)
Min Temperature 62 °F 55 °F 43 °F (1964)
Degree Days  
Heating Degree Days 0 1  
Month to date heating degree days 5 16  
Since 1 June heating degree days 75 127  
Since 1 July heating degree days 5 37  
Cooling Degree Days 6 4  
Month to date cooling degree days 60 64  
Year to date cooling degree days 356 284  
Since 1 June cooling degree days 347 272  
Growing Degree Days 20 (Base 50)    
Moisture  
Dew Point 64 °F    
Average Humidity 80    
Maximum Humidity 97    
Minimum Humidity 62    
Precipitation  
Precipitation 0.53 in 0.12 in 1.34 in (1951)
Month to date precipitation 1.41 2.05  
Year to date precipitation 27.35 24.18  
Sea Level Pressure  
Sea Level Pressure 30.02 in    
Wind  
Wind Speed 3 mph (SSE)    
Max Wind Speed 10 mph    
Max Gust Speed 14 mph    
Visibility 6 miles    
Events Fog , Rain , Thunderstorm    
T = Trace of Precipitation, MM = Missing Value Source: NWS Daily Summary

Daily Weather History Graph

Daily Weather History Graph

Search for Another Location

Airport or City:

Astronomy

Aug. 16, 2019 Rise Set
Actual Time 6:00 AM EDT 7:56 PM EDT
Civil Twilight 5:29 AM EDT 8:26 PM EDT
Nautical Twilight 4:51 AM EDT 9:04 PM EDT
Astronomical Twilight 4:10 AM EDT 9:45 PM EDT
Moon 8:53 PM EDT (8/16) 6:49 AM EDT (8/16)
Length of Visible Light 14h 57m
Length of Day
13h 55m
Full, 99% of the Moon is Illuminated
Aug 16
Full
Aug 23
Last Quarter
Aug 30
New
Sep 5
First Quarter
Sep 14
Full

Hourly Weather History & Observations

Time (EDT) Temp. Dew Point Humidity Pressure Visibility Wind Dir Wind Speed Gust Speed Precip Events Conditions
12:12 AM 66.0 °F 64.9 °F 96% 30.02 in 9.0 mi Calm Calm - 0.01 in Rain , Thunderstorm Light Rain
12:22 AM 66.0 °F 64.0 °F 93% 30.03 in 9.0 mi WSW 4.6 mph - 0.02 in Rain Light Rain
12:53 AM 66.9 °F 64.9 °F 93% 30.01 in 10.0 mi East 4.6 mph - 0.03 in Rain Light Rain
1:43 AM 66.0 °F 64.9 °F 96% 30.01 in 8.0 mi NNE 3.5 mph - 0.01 in Rain Light Rain
1:53 AM 66.9 °F 64.9 °F 93% 30.01 in 7.0 mi ESE 5.8 mph - 0.02 in Rain Light Rain
2:13 AM 66.9 °F 64.0 °F 90% 30.00 in 7.0 mi SSE 10.4 mph - 0.03 in Rain Light Rain
2:45 AM 66.0 °F 63.0 °F 90% 30.01 in 10.0 mi SSW 3.5 mph - 0.03 in   Overcast
2:53 AM 66.0 °F 63.0 °F 90% 30.00 in 10.0 mi South 6.9 mph - 0.03 in   Overcast
3:53 AM 64.0 °F 62.1 °F 93% 30.00 in 10.0 mi South 3.5 mph - N/A   Partly Cloudy
4:49 AM 64.4 °F 62.6 °F 94% 30.00 in 9.0 mi ESE 3.5 mph - N/A   Mostly Cloudy
4:53 AM 64.0 °F 62.1 °F 93% 30.00 in 9.0 mi ESE 3.5 mph - N/A   Mostly Cloudy
5:17 AM 64.0 °F 62.1 °F 93% 30.02 in 4.0 mi Calm Calm - N/A   Partly Cloudy
5:21 AM 63.0 °F 61.0 °F 93% 30.01 in 1.5 mi Calm Calm - N/A   Partly Cloudy
5:25 AM 63.0 °F 61.0 °F 93% 30.01 in 0.8 mi Calm Calm - N/A   Mist
5:37 AM 62.1 °F 61.0 °F 96% 30.02 in 1.2 mi Calm Calm - N/A   Partly Cloudy
5:44 AM 62.1 °F 61.0 °F 96% 30.02 in 0.8 mi Calm Calm - N/A   Mist
5:53 AM 62.1 °F 61.0 °F 96% 30.02 in 1.0 mi Calm Calm - N/A   Scattered Clouds
6:13 AM 63.0 °F 62.1 °F 97% 30.02 in 3.0 mi Calm Calm - 0.01 in Rain Light Rain
6:53 AM 64.0 °F 63.0 °F 96% 30.03 in 9.0 mi Calm Calm - 0.01 in Rain Light Rain
7:53 AM 64.9 °F 63.0 °F 93% 30.04 in 6.0 mi ESE 4.6 mph - 0.04 in Rain Light Rain
8:23 AM 64.9 °F 63.0 °F 93% 30.04 in 8.0 mi East 4.6 mph - 0.00 in   Overcast
8:46 AM 64.9 °F 63.0 °F 93% 30.04 in 8.0 mi Calm Calm - 0.01 in Rain , Thunderstorm Light Thunderstorms and Rain
8:53 AM 64.9 °F 63.0 °F 93% 30.04 in 3.0 mi Calm Calm - 0.04 in Rain , Thunderstorm Light Thunderstorms and Rain
8:56 AM 64.9 °F 63.0 °F 93% 30.05 in 1.8 mi SW 3.5 mph - 0.03 in Rain , Thunderstorm Thunderstorms and Rain
9:01 AM 64.9 °F 63.0 °F 93% 30.05 in 0.5 mi SSW 4.6 mph - 0.18 in Fog , Rain , Thunderstorm Heavy Thunderstorms and Rain
9:14 AM 64.0 °F 63.0 °F 96% 30.04 in 1.0 mi Calm Calm - 0.35 in Rain , Thunderstorm Heavy Thunderstorms and Rain
9:19 AM 64.0 °F 63.0 °F 96% 30.05 in 3.0 mi Calm Calm - 0.36 in Rain , Thunderstorm Light Thunderstorms and Rain
9:30 AM 64.9 °F 63.0 °F 93% 30.05 in 7.0 mi East 3.5 mph - 0.36 in Rain , Thunderstorm Light Rain
9:53 AM 66.0 °F 64.0 °F 93% 30.05 in 10.0 mi SE 4.6 mph - 0.36 in Thunderstorm Overcast
10:06 AM 66.9 °F 63.0 °F 87% 30.05 in 10.0 mi Calm Calm - N/A   Overcast
10:53 AM 66.9 °F 62.1 °F 84% 30.05 in 10.0 mi SE 3.5 mph - 0.01 in Rain Light Rain
11:53 AM 68.0 °F 63.0 °F 84% 30.05 in 10.0 mi Variable 4.6 mph - 0.00 in   Overcast
12:53 PM 70.0 °F 63.0 °F 78% 30.03 in 10.0 mi Calm Calm - 0.00 in   Overcast
1:53 PM 73.0 °F 64.9 °F 76% 30.03 in 10.0 mi Calm Calm - N/A   Overcast
2:53 PM 75.9 °F 64.9 °F 69% 30.02 in 10.0 mi SSE 6.9 mph - N/A   Scattered Clouds
3:11 PM 75.9 °F 64.9 °F 69% 30.01 in 10.0 mi SE 4.6 mph - N/A   Mostly Cloudy
3:53 PM 78.1 °F 64.9 °F 64% 30.00 in 10.0 mi South 5.8 mph - N/A   Mostly Cloudy
4:53 PM 77.0 °F 64.0 °F 64% 29.99 in 10.0 mi SSE 5.8 mph - N/A   Scattered Clouds
5:53 PM 73.9 °F 66.0 °F 76% 29.98 in 4.0 mi South 4.6 mph - 0.01 in Rain Rain
6:53 PM 73.0 °F 68.0 °F 84% 29.98 in 10.0 mi West 3.5 mph - 0.00 in   Mostly Cloudy
7:53 PM 70.0 °F 68.0 °F 93% 29.98 in 10.0 mi Calm Calm - N/A   Scattered Clouds
8:50 PM 66.2 °F 64.4 °F 94% 29.98 in 0.8 mi Calm Calm - N/A   Scattered Clouds
8:51 PM 66.0 °F 64.9 °F 96% 29.99 in 0.8 mi Calm Calm - N/A   Scattered Clouds
8:59 PM 66.0 °F 64.9 °F 96% 29.99 in 1.8 mi South 3.5 mph - N/A   Scattered Clouds
9:12 PM 66.9 °F 66.0 °F 97% 30.00 in 3.0 mi Calm Calm - N/A   Scattered Clouds
9:53 PM 68.0 °F 66.0 °F 93% 30.00 in 9.0 mi Calm Calm - N/A   Mostly Cloudy
10:53 PM 69.1 °F 66.9 °F 93% 30.00 in 9.0 mi North 3.5 mph - N/A   Clear
11:28 PM 68.0 °F 66.0 °F 93% 29.99 in 5.0 mi NW 3.5 mph - N/A Thunderstorm Scattered Clouds
11:45 PM 68.0 °F 66.9 °F 96% 29.99 in 6.0 mi Calm Calm - N/A   Mostly Cloudy
11:53 PM 68.0 °F 66.0 °F 93% 29.99 in 8.0 mi Calm Calm - N/A   Mostly Cloudy